Time,TemperatureF,DewpointF,PressureIn,WindDirection,WindDirectionDegrees,WindSpeedMPH,WindSpeedGustMPH,Humidity,HourlyPrecipIn,Conditions,Clouds,dailyrainin,SolarRadiationWatts/m^2,SoftwareType,DateUTC
2013-03-18 00:00:00,38.3,36.7,30.23,ENE,73,0.0,6.0,94,0.00,,,0.01,0,Wunderground v.1.15,2013-03-18 04:00:00,
2013-03-18 00:05:00,38.3,36.7,30.22,ENE,57,0.0,6.0,94,0.00,,,0.00,0,Wunderground v.1.15,2013-03-18 04:05:00,
2013-03-18 00:10:00,38.2,36.6,30.22,ENE,58,0.0,6.0,94,0.00,,,0.00,0,Wunderground v.1.15,2013-03-18 04:10:00,
2013-03-18 00:15:00,38.2,36.6,30.22,ENE,58,0.0,6.0,94,0.00,,,0.00,0,Wunderground v.1.15,2013-03-18 04:15:00,
2013-03-18 00:20:00,38.2,36.6,30.22,ENE,58,0.0,6.0,94,0.00,,,0.00,0,Wunderground v.1.15,2013-03-18 04:20:00,
2013-03-18 00:25:00,38.1,36.5,30.22,ENE,58,0.0,6.0,94,0.00,,,0.00,0,Wunderground v.1.15,2013-03-18 04:25:00,
2013-03-18 00:30:00,38.1,36.8,30.22,ENE,58,0.0,6.0,95,0.00,,,0.01,0,Wunderground v.1.15,2013-03-18 04:30:00,
2013-03-18 00:35:00,38.0,36.7,30.22,ENE,58,0.0,6.0,95,0.00,,,0.01,0,Wunderground v.1.15,2013-03-18 04:35:00,
2013-03-18 00:40:00,38.1,36.8,30.21,ENE,58,0.0,6.0,95,0.00,,,0.01,0,Wunderground v.1.15,2013-03-18 04:40:00,
2013-03-18 00:45:00,38.0,36.7,30.21,ENE,58,0.0,6.0,95,0.00,,,0.01,0,Wunderground v.1.15,2013-03-18 04:45:00,
2013-03-18 00:50:00,38.0,36.7,30.21,ENE,58,0.0,6.0,95,0.00,,,0.01,0,Wunderground v.1.15,2013-03-18 04:50:00,
2013-03-18 00:55:00,38.0,36.7,30.21,ENE,58,0.0,6.0,95,0.00,,,0.01,0,Wunderground v.1.15,2013-03-18 04:55:00,
2013-03-18 01:00:00,38.0,36.7,30.21,ENE,58,0.0,6.0,95,0.00,,,0.01,0,Wunderground v.1.15,2013-03-18 05:00:00,
2013-03-18 01:05:00,38.1,36.8,30.21,ENE,58,0.0,6.0,95,0.00,,,0.01,0,Wunderground v.1.15,2013-03-18 05:05:00,
2013-03-18 01:10:00,38.1,36.8,30.21,ENE,58,0.0,6.0,95,0.00,,,0.01,0,Wunderground v.1.15,2013-03-18 05:10:00,
2013-03-18 01:20:00,38.1,36.8,30.21,West,280,0.0,6.0,95,0.00,,,0.01,0,Wunderground v.1.15,2013-03-18 05:20:00,
2013-03-18 01:25:00,38.1,36.8,30.21,West,280,0.0,6.0,95,0.00,,,0.01,0,Wunderground v.1.15,2013-03-18 05:25:00,
2013-03-18 01:30:00,38.2,36.9,30.21,West,280,0.0,6.0,95,0.00,,,0.01,0,Wunderground v.1.15,2013-03-18 05:30:00,
2013-03-18 01:35:00,38.2,36.9,30.21,West,280,0.0,6.0,95,0.00,,,0.01,0,Wunderground v.1.15,2013-03-18 05:35:00,
2013-03-18 01:40:00,38.2,36.9,30.21,West,280,0.0,6.0,95,0.00,,,0.01,0,Wunderground v.1.15,2013-03-18 05:40:00,
2013-03-18 01:45:00,38.3,37.0,30.21,West,280,0.0,6.0,95,0.00,,,0.01,0,Wunderground v.1.15,2013-03-18 05:45:00,
2013-03-18 01:50:00,38.3,37.0,30.21,West,280,0.0,6.0,95,0.00,,,0.01,0,Wunderground v.1.15,2013-03-18 05:50:00,
2013-03-18 01:55:00,38.3,37.0,30.21,West,280,0.0,6.0,95,0.00,,,0.01,0,Wunderground v.1.15,2013-03-18 05:55:00,
2013-03-18 02:00:00,38.3,37.0,30.21,West,280,0.0,6.0,95,0.00,,,0.01,0,Wunderground v.1.15,2013-03-18 06:00:00,
2013-03-18 02:05:00,38.3,37.0,30.22,WNW,303,0.0,6.0,95,0.00,,,0.01,0,Wunderground v.1.15,2013-03-18 06:05:00,
2013-03-18 02:15:00,38.3,37.0,30.22,WNW,303,0.0,6.0,95,0.00,,,0.01,0,Wunderground v.1.15,2013-03-18 06:15:00,
2013-03-18 02:20:00,38.3,37.0,30.22,WNW,303,0.0,6.0,95,0.00,,,0.01,0,Wunderground v.1.15,2013-03-18 06:20:00,
2013-03-18 02:25:00,38.3,37.0,30.21,WNW,303,0.0,6.0,95,0.00,,,0.01,0,Wunderground v.1.15,2013-03-18 06:25:00,
2013-03-18 02:30:00,38.3,37.0,30.21,NW,307,0.0,6.0,95,0.00,,,0.01,0,Wunderground v.1.15,2013-03-18 06:30:00,
2013-03-18 02:35:00,38.2,36.9,30.21,North,350,0.0,6.0,95,0.00,,,0.01,0,Wunderground v.1.15,2013-03-18 06:35:00,
2013-03-18 02:40:00,38.2,36.9,30.20,North,350,0.0,6.0,95,0.00,,,0.01,0,Wunderground v.1.15,2013-03-18 06:40:00,
2013-03-18 02:45:00,38.2,36.9,30.20,North,350,0.0,6.0,95,0.00,,,0.01,0,Wunderground v.1.15,2013-03-18 06:45:00,
2013-03-18 02:50:00,38.2,36.9,30.20,North,350,0.0,6.0,95,0.00,,,0.01,0,Wunderground v.1.15,2013-03-18 06:50:00,
2013-03-18 03:00:00,38.2,36.9,30.21,North,350,0.0,6.0,95,0.00,,,0.01,0,Wunderground v.1.15,2013-03-18 07:00:00,
2013-03-18 03:10:00,38.3,37.0,30.21,North,350,0.0,6.0,95,0.00,,,0.01,0,Wunderground v.1.15,2013-03-18 07:10:00,
2013-03-18 03:15:00,38.2,36.9,30.21,North,350,0.0,6.0,95,0.00,,,0.01,0,Wunderground v.1.15,2013-03-18 07:15:00,
2013-03-18 03:20:00,38.2,36.9,30.21,North,350,0.0,6.0,95,0.00,,,0.01,0,Wunderground v.1.15,2013-03-18 07:20:00,
2013-03-18 03:25:00,38.1,36.8,30.20,North,350,0.0,6.0,95,0.00,,,0.01,0,Wunderground v.1.15,2013-03-18 07:25:00,
2013-03-18 03:30:00,38.1,36.8,30.20,North,350,0.0,6.0,95,0.00,,,0.01,0,Wunderground v.1.15,2013-03-18 07:30:00,
2013-03-18 03:40:00,38.2,37.2,30.19,North,350,0.0,6.0,96,0.00,,,0.01,0,Wunderground v.1.15,2013-03-18 07:40:00,
2013-03-18 03:50:00,38.0,36.7,30.19,North,350,0.0,6.0,95,0.00,,,0.01,0,Wunderground v.1.15,2013-03-18 07:50:00,
2013-03-18 03:55:00,38.0,36.7,30.18,North,350,0.0,6.0,95,0.00,,,0.01,0,Wunderground v.1.15,2013-03-18 07:55:00,
2013-03-18 04:00:00,38.0,36.7,30.19,North,350,0.0,6.0,95,0.00,,,0.01,0,Wunderground v.1.15,2013-03-18 08:00:00,
2013-03-18 04:05:00,38.0,36.7,30.20,North,350,0.0,6.0,95,0.00,,,0.01,0,Wunderground v.1.15,2013-03-18 08:05:00,
2013-03-18 04:10:00,37.9,36.6,30.20,NNE,28,0.0,6.0,95,0.00,,,0.01,0,Wunderground v.1.15,2013-03-18 08:10:00,
2013-03-18 04:15:00,37.8,36.5,30.20,NNE,28,0.0,6.0,95,0.00,,,0.02,0,Wunderground v.1.15,2013-03-18 08:15:00,
2013-03-18 04:20:00,37.7,36.4,30.20,NNE,28,0.0,6.0,95,0.00,,,0.02,0,Wunderground v.1.15,2013-03-18 08:20:00,
2013-03-18 04:25:00,37.7,36.4,30.20,NNE,28,0.0,6.0,95,0.00,,,0.02,0,Wunderground v.1.15,2013-03-18 08:25:00,
2013-03-18 04:35:00,37.7,36.4,30.20,NNE,28,0.0,6.0,95,0.00,,,0.02,0,Wunderground v.1.15,2013-03-18 08:35:00,
2013-03-18 04:40:00,37.7,36.4,30.20,NNE,28,0.0,6.0,95,0.00,,,0.02,0,Wunderground v.1.15,2013-03-18 08:40:00,
2013-03-18 04:45:00,37.5,36.2,30.19,NNE,28,0.0,6.0,95,0.00,,,0.02,0,Wunderground v.1.15,2013-03-18 08:45:00,
2013-03-18 04:50:00,37.6,36.3,30.19,NNE,29,0.0,6.0,95,0.00,,,0.02,0,Wunderground v.1.15,2013-03-18 08:50:00,
2013-03-18 04:55:00,37.6,36.3,30.19,NNE,29,0.0,6.0,95,0.00,,,0.02,0,Wunderground v.1.15,2013-03-18 08:55:00,
2013-03-18 05:00:00,37.5,36.2,30.19,ENE,60,0.0,6.0,95,0.00,,,0.02,0,Wunderground v.1.15,2013-03-18 09:00:00,
2013-03-18 05:05:00,37.6,36.3,30.19,North,355,0.0,6.0,95,0.00,,,0.02,0,Wunderground v.1.15,2013-03-18 09:05:00,
2013-03-18 05:10:00,37.7,36.7,30.20,NNW,348,0.0,6.0,96,0.00,,,0.02,0,Wunderground v.1.15,2013-03-18 09:10:00,
2013-03-18 05:20:00,37.4,36.1,30.20,North,5,0.0,6.0,95,0.00,,,0.02,0,Wunderground v.1.15,2013-03-18 09:20:00,
2013-03-18 05:30:00,37.3,36.0,30.20,NNW,346,0.0,6.0,95,0.00,,,0.02,0,Wunderground v.1.15,2013-03-18 09:30:00,
2013-03-18 05:35:00,37.3,36.0,30.20,NNW,346,0.0,6.0,95,0.00,,,0.02,0,Wunderground v.1.15,2013-03-18 09:35:00,
2013-03-18 05:40:00,37.1,35.8,30.20,ENE,63,0.0,6.0,95,0.00,,,0.02,0,Wunderground v.1.15,2013-03-18 09:40:00,
2013-03-18 05:45:00,37.0,35.7,30.20,ENE,63,0.0,6.0,95,0.00,,,0.02,0,Wunderground v.1.15,2013-03-18 09:45:00,
2013-03-18 05:50:00,37.0,35.7,30.20,ENE,63,0.0,6.0,95,0.00,,,0.02,0,Wunderground v.1.15,2013-03-18 09:50:00,
2013-03-18 05:55:00,37.0,35.7,30.21,ENE,63,0.0,6.0,95,0.00,,,0.02,0,Wunderground v.1.15,2013-03-18 09:55:00,
2013-03-18 06:00:00,37.0,35.7,30.21,ENE,63,0.0,6.0,95,0.00,,,0.03,0,Wunderground v.1.15,2013-03-18 10:00:00,
2013-03-18 06:05:00,37.0,35.7,30.21,NNE,24,1.0,6.0,95,0.00,,,0.03,0,Wunderground v.1.15,2013-03-18 10:05:00,
2013-03-18 06:15:00,36.9,35.6,30.21,NNE,24,0.0,6.0,95,0.00,,,0.03,0,Wunderground v.1.15,2013-03-18 10:15:00,
2013-03-18 06:20:00,36.9,35.6,30.22,NNE,24,0.0,6.0,95,0.00,,,0.03,0,Wunderground v.1.15,2013-03-18 10:20:00,
2013-03-18 06:30:00,36.9,35.6,30.22,NNE,24,0.0,6.0,95,0.00,,,0.03,0,Wunderground v.1.15,2013-03-18 10:30:00,
2013-03-18 06:35:00,36.8,35.5,30.22,NNE,24,0.0,6.0,95,0.00,,,0.03,0,Wunderground v.1.15,2013-03-18 10:35:00,
2013-03-18 06:40:00,36.8,35.5,30.22,NNE,24,0.0,6.0,95,0.00,,,0.03,0,Wunderground v.1.15,2013-03-18 10:40:00,
2013-03-18 06:45:00,36.8,35.5,30.22,NNE,24,0.0,6.0,95,0.00,,,0.03,0,Wunderground v.1.15,2013-03-18 10:45:00,
2013-03-18 06:50:00,36.9,35.6,30.22,NNE,24,0.0,6.0,95,0.00,,,0.03,0,Wunderground v.1.15,2013-03-18 10:50:00,
2013-03-18 06:55:00,36.8,35.5,30.23,NNE,24,0.0,6.0,95,0.00,,,0.03,0,Wunderground v.1.15,2013-03-18 10:55:00,
2013-03-18 07:00:00,36.8,35.5,30.22,NNE,24,0.0,6.0,95,0.00,,,0.03,0,Wunderground v.1.15,2013-03-18 11:00:00,
2013-03-18 07:10:00,36.6,35.6,30.23,North,360,0.0,6.0,96,0.00,,,0.03,0,Wunderground v.1.15,2013-03-18 11:10:00,
2013-03-18 07:15:00,36.7,35.7,30.23,NNW,344,1.0,6.0,96,0.00,,,0.03,0,Wunderground v.1.15,2013-03-18 11:15:00,
2013-03-18 07:20:00,36.7,35.7,30.23,NNW,347,1.0,1.0,96,0.00,,,0.03,0,Wunderground v.1.15,2013-03-18 11:20:00,
2013-03-18 07:25:00,36.7,35.7,30.24,North,351,0.0,6.0,96,0.00,,,0.03,0,Wunderground v.1.15,2013-03-18 11:25:00,
2013-03-18 07:30:00,36.6,35.6,30.24,North,355,0.0,6.0,96,0.00,,,0.03,0,Wunderground v.1.15,2013-03-18 11:30:00,
2013-03-18 07:40:00,36.5,35.5,30.24,North,350,0.0,6.0,96,0.00,,,0.03,0,Wunderground v.1.15,2013-03-18 11:40:00,
2013-03-18 07:45:00,36.5,35.5,30.24,NNW,346,0.0,6.0,96,0.00,,,0.03,0,Wunderground v.1.15,2013-03-18 11:45:00,
2013-03-18 07:50:00,36.5,35.5,30.24,West,267,0.0,6.0,96,0.00,,,0.03,0,Wunderground v.1.15,2013-03-18 11:50:00,
2013-03-18 07:55:00,36.6,35.6,30.23,WNW,290,0.0,6.0,96,0.00,,,0.04,7,Wunderground v.1.15,2013-03-18 11:55:00,
2013-03-18 08:00:00,36.5,35.5,30.24,WNW,290,0.0,6.0,96,0.00,,,0.04,5,Wunderground v.1.15,2013-03-18 12:00:00,
2013-03-18 08:10:00,36.4,35.4,30.24,WNW,293,0.0,6.0,96,0.00,,,0.04,0,Wunderground v.1.15,2013-03-18 12:10:00,
2013-03-18 08:15:00,36.4,35.4,30.25,WNW,293,0.0,6.0,96,0.00,,,0.04,0,Wunderground v.1.15,2013-03-18 12:15:00,
2013-03-18 08:25:00,36.4,35.4,30.24,NE,46,0.0,6.0,96,0.00,,,0.04,9,Wunderground v.1.15,2013-03-18 12:25:00,
2013-03-18 08:30:00,36.3,35.3,30.23,NE,46,0.0,6.0,96,0.00,,,0.04,16,Wunderground v.1.15,2013-03-18 12:30:00,
2013-03-18 08:35:00,36.3,35.3,30.23,NE,46,0.0,6.0,96,0.00,,,0.04,14,Wunderground v.1.15,2013-03-18 12:35:00,
2013-03-18 08:40:00,36.5,35.5,30.22,North,5,0.0,6.0,96,0.00,,,0.04,18,Wunderground v.1.15,2013-03-18 12:40:00,
2013-03-18 08:45:00,36.6,35.6,30.23,NE,38,0.0,6.0,96,0.00,,,0.04,18,Wunderground v.1.15,2013-03-18 12:45:00,
2013-03-18 08:50:00,36.6,35.6,30.23,NE,34,1.0,1.0,96,0.00,,,0.04,16,Wunderground v.1.15,2013-03-18 12:50:00,
2013-03-18 08:55:00,36.7,35.7,30.23,North,360,0.0,6.0,96,0.00,,,0.04,19,Wunderground v.1.15,2013-03-18 12:55:00,
2013-03-18 09:00:00,36.8,35.8,30.23,North,355,0.0,6.0,96,0.00,,,0.04,19,Wunderground v.1.15,2013-03-18 13:00:00,
2013-03-18 09:10:00,36.9,35.9,30.23,NW,321,0.0,6.0,96,0.00,,,0.04,21,Wunderground v.1.15,2013-03-18 13:10:00,
2013-03-18 09:15:00,36.9,35.9,30.23,North,350,0.0,6.0,96,0.00,,,0.04,19,Wunderground v.1.15,2013-03-18 13:15:00,
2013-03-18 09:20:00,37.0,36.0,30.23,North,350,0.0,6.0,96,0.00,,,0.04,21,Wunderground v.1.15,2013-03-18 13:20:00,
2013-03-18 09:25:00,37.0,36.0,30.23,North,350,0.0,6.0,96,0.00,,,0.04,23,Wunderground v.1.15,2013-03-18 13:25:00,
2013-03-18 09:30:00,37.0,36.0,30.22,North,355,0.0,6.0,96,0.00,,,0.04,26,Wunderground v.1.15,2013-03-18 13:30:00,
2013-03-18 09:35:00,37.0,36.0,30.23,North,355,0.0,6.0,96,0.00,,,0.04,26,Wunderground v.1.15,2013-03-18 13:35:00,
2013-03-18 09:40:00,37.2,36.2,30.23,North,355,0.0,6.0,96,0.00,,,0.04,30,Wunderground v.1.15,2013-03-18 13:40:00,
2013-03-18 09:45:00,37.2,36.2,30.22,North,355,0.0,6.0,96,0.00,,,0.04,40,Wunderground v.1.15,2013-03-18 13:45:00,
2013-03-18 09:50:00,37.1,36.1,30.21,North,5,0.0,6.0,96,0.00,,,0.04,47,Wunderground v.1.15,2013-03-18 13:50:00,
2013-03-18 09:55:00,37.2,36.2,30.20,North,5,0.0,6.0,96,0.00,,,0.04,53,Wunderground v.1.15,2013-03-18 13:55:00,
2013-03-18 10:00:00,37.3,36.3,30.20,North,9,0.0,6.0,96,0.00,,,0.04,35,Wunderground v.1.15,2013-03-18 14:00:00,
2013-03-18 10:05:00,37.4,36.4,30.21,North,9,0.0,6.0,96,0.00,,,0.04,42,Wunderground v.1.15,2013-03-18 14:05:00,
2013-03-18 10:15:00,37.5,36.5,30.21,NW,304,0.0,6.0,96,0.00,,,0.04,40,Wunderground v.1.15,2013-03-18 14:15:00,
2013-03-18 10:20:00,37.5,36.5,30.21,NW,304,0.0,6.0,96,0.00,,,0.04,42,Wunderground v.1.15,2013-03-18 14:20:00,
2013-03-18 10:25:00,37.6,36.6,30.21,NW,304,0.0,6.0,96,0.00,,,0.04,56,Wunderground v.1.15,2013-03-18 14:25:00,
2013-03-18 10:30:00,37.7,36.7,30.20,North,360,0.0,6.0,96,0.00,,,0.04,56,Wunderground v.1.15,2013-03-18 14:30:00,
2013-03-18 10:35:00,37.8,36.8,30.19,North,360,0.0,6.0,96,0.00,,,0.04,63,Wunderground v.1.15,2013-03-18 14:35:00,
2013-03-18 10:40:00,37.9,36.9,30.18,NNE,13,0.0,6.0,96,0.00,,,0.04,86,Wunderground v.1.15,2013-03-18 14:40:00,
2013-03-18 10:50:00,38.2,37.2,30.18,SSE,163,0.0,6.0,96,0.00,,,0.04,63,Wunderground v.1.15,2013-03-18 14:50:00,
2013-03-18 10:55:00,38.3,37.3,30.18,West,259,0.0,6.0,96,0.00,,,0.04,72,Wunderground v.1.15,2013-03-18 14:55:00,
2013-03-18 11:00:00,38.4,37.4,30.17,West,259,0.0,6.0,96,0.00,,,0.04,74,Wunderground v.1.15,2013-03-18 15:00:00,
2013-03-18 11:05:00,38.4,37.4,30.17,NE,34,0.0,6.0,96,0.00,,,0.04,72,Wunderground v.1.15,2013-03-18 15:05:00,
2013-03-18 11:10:00,38.5,37.5,30.17,NE,34,0.0,6.0,96,0.00,,,0.04,67,Wunderground v.1.15,2013-03-18 15:10:00,
2013-03-18 11:15:00,38.6,37.6,30.17,NE,34,0.0,6.0,96,0.00,,,0.04,60,Wunderground v.1.15,2013-03-18 15:15:00,
2013-03-18 11:20:00,38.7,37.7,30.17,NE,34,0.0,6.0,96,0.00,,,0.04,62,Wunderground v.1.15,2013-03-18 15:20:00,
2013-03-18 11:25:00,38.8,37.8,30.17,NE,34,0.0,6.0,96,0.00,,,0.04,67,Wunderground v.1.15,2013-03-18 15:25:00,
2013-03-18 11:35:00,38.9,37.9,30.17,NNE,15,0.0,6.0,96,0.00,,,0.04,58,Wunderground v.1.15,2013-03-18 15:35:00,
2013-03-18 11:40:00,39.0,38.0,30.17,WNW,302,0.0,6.0,96,0.00,,,0.04,60,Wunderground v.1.15,2013-03-18 15:40:00,
2013-03-18 11:45:00,39.0,38.0,30.17,ENE,66,0.0,6.0,96,0.00,,,0.04,62,Wunderground v.1.15,2013-03-18 15:45:00,
2013-03-18 11:55:00,39.2,38.2,30.15,ENE,66,0.0,6.0,96,0.00,,,0.04,76,Wunderground v.1.15,2013-03-18 15:55:00,
2013-03-18 12:00:00,39.2,38.2,30.15,ENE,66,0.0,6.0,96,0.00,,,0.04,74,Wunderground v.1.15,2013-03-18 16:00:00,
2013-03-18 12:05:00,39.4,38.4,30.15,ENE,66,0.0,6.0,96,0.00,,,0.04,63,Wunderground v.1.15,2013-03-18 16:05:00,
2013-03-18 12:10:00,39.5,38.5,30.15,ENE,66,0.0,6.0,96,0.00,,,0.04,77,Wunderground v.1.15,2013-03-18 16:10:00,
2013-03-18 12:15:00,39.6,38.6,30.15,NNE,16,0.0,6.0,96,0.00,,,0.04,81,Wunderground v.1.15,2013-03-18 16:15:00,
2013-03-18 12:20:00,39.6,38.6,30.15,NNE,16,0.0,6.0,96,0.00,,,0.04,76,Wunderground v.1.15,2013-03-18 16:20:00,
2013-03-18 12:25:00,39.7,38.7,30.15,NNE,16,0.0,6.0,96,0.00,,,0.04,69,Wunderground v.1.15,2013-03-18 16:25:00,
2013-03-18 12:35:00,39.7,38.7,30.14,NNE,16,0.0,6.0,96,0.00,,,0.04,77,Wunderground v.1.15,2013-03-18 16:35:00,
2013-03-18 12:45:00,39.9,38.9,30.14,NNE,16,0.0,6.0,96,0.00,,,0.04,67,Wunderground v.1.15,2013-03-18 16:45:00,
2013-03-18 12:50:00,39.9,38.9,30.14,NNE,16,0.0,6.0,96,0.00,,,0.04,67,Wunderground v.1.15,2013-03-18 16:50:00,
2013-03-18 12:55:00,40.0,39.0,30.14,NNE,16,0.0,6.0,96,0.00,,,0.04,77,Wunderground v.1.15,2013-03-18 16:55:00,
2013-03-18 13:00:00,40.0,39.0,30.14,NNE,16,0.0,6.0,96,0.00,,,0.04,70,Wunderground v.1.15,2013-03-18 17:00:00,
2013-03-18 13:05:00,40.0,39.0,30.14,NNE,16,0.0,6.0,96,0.00,,,0.04,58,Wunderground v.1.15,2013-03-18 17:05:00,
2013-03-18 13:10:00,40.1,39.1,30.14,NNE,16,0.0,6.0,96,0.00,,,0.04,62,Wunderground v.1.15,2013-03-18 17:10:00,
2013-03-18 13:15:00,40.1,39.1,30.14,NNE,16,0.0,6.0,96,0.00,,,0.04,62,Wunderground v.1.15,2013-03-18 17:15:00,
2013-03-18 13:20:00,40.2,39.2,30.13,NNE,16,0.0,6.0,96,0.00,,,0.04,58,Wunderground v.1.15,2013-03-18 17:20:00,
2013-03-18 13:30:00,40.3,39.3,30.12,NNE,16,0.0,6.0,96,0.00,,,0.04,88,Wunderground v.1.15,2013-03-18 17:30:00,
2013-03-18 13:35:00,40.4,39.4,30.12,NNE,16,0.0,6.0,96,0.00,,,0.04,72,Wunderground v.1.15,2013-03-18 17:35:00,
2013-03-18 13:40:00,40.4,39.4,30.12,NNE,16,0.0,6.0,96,0.00,,,0.04,95,Wunderground v.1.15,2013-03-18 17:40:00,
2013-03-18 13:45:00,40.5,39.4,30.12,NNE,16,0.0,6.0,96,0.00,,,0.04,58,Wunderground v.1.15,2013-03-18 17:45:00,
2013-03-18 13:50:00,40.6,39.5,30.11,NNE,16,0.0,6.0,96,0.00,,,0.04,84,Wunderground v.1.15,2013-03-18 17:50:00,
2013-03-18 13:55:00,40.6,39.5,30.11,NNE,16,0.0,6.0,96,0.00,,,0.04,62,Wunderground v.1.15,2013-03-18 17:55:00,
2013-03-18 14:05:00,40.5,39.4,30.11,NNW,340,1.0,2.0,96,0.00,,,0.04,54,Wunderground v.1.15,2013-03-18 18:05:00,
2013-03-18 14:10:00,40.5,39.4,30.11,NNW,346,0.0,6.0,96,0.00,,,0.04,58,Wunderground v.1.15,2013-03-18 18:10:00,
2013-03-18 14:15:00,40.5,39.4,30.10,NNW,346,1.0,6.0,96,0.00,,,0.04,70,Wunderground v.1.15,2013-03-18 18:15:00,
2013-03-18 14:20:00,40.5,39.4,30.09,NNW,346,1.0,1.0,96,0.00,,,0.04,70,Wunderground v.1.15,2013-03-18 18:20:00,
2013-03-18 14:25:00,40.6,39.5,30.09,NNW,346,0.0,6.0,96,0.00,,,0.04,88,Wunderground v.1.15,2013-03-18 18:25:00,
2013-03-18 14:30:00,40.8,39.7,30.08,NNW,346,0.0,6.0,96,0.00,,,0.04,77,Wunderground v.1.15,2013-03-18 18:30:00,
2013-03-18 14:35:00,41.0,39.9,30.08,NNW,346,0.0,6.0,96,0.00,,,0.04,62,Wunderground v.1.15,2013-03-18 18:35:00,
2013-03-18 14:40:00,41.1,40.0,30.07,NNW,346,0.0,6.0,96,0.00,,,0.04,70,Wunderground v.1.15,2013-03-18 18:40:00,
2013-03-18 14:45:00,41.3,40.2,30.07,NNW,346,0.0,6.0,96,0.00,,,0.04,74,Wunderground v.1.15,2013-03-18 18:45:00,
2013-03-18 14:55:00,41.3,40.2,30.07,NNW,346,0.0,6.0,96,0.00,,,0.04,54,Wunderground v.1.15,2013-03-18 18:55:00,
2013-03-18 15:00:00,41.2,40.1,30.06,NNW,346,0.0,6.0,96,0.00,,,0.04,69,Wunderground v.1.15,2013-03-18 19:00:00,
2013-03-18 15:10:00,41.4,40.3,30.05,NNW,346,0.0,6.0,96,0.00,,,0.04,113,Wunderground v.1.15,2013-03-18 19:10:00,
2013-03-18 15:15:00,41.7,40.6,30.04,NNW,343,0.0,6.0,96,0.00,,,0.04,125,Wunderground v.1.15,2013-03-18 19:15:00,
2013-03-18 15:20:00,41.8,40.7,30.04,NNW,343,0.0,6.0,96,0.00,,,0.04,113,Wunderground v.1.15,2013-03-18 19:20:00,
2013-03-18 15:25:00,41.9,40.8,30.04,NNW,340,0.0,6.0,96,0.00,,,0.04,104,Wunderground v.1.15,2013-03-18 19:25:00,
2013-03-18 15:35:00,42.0,40.9,30.03,NNW,340,0.0,6.0,96,0.00,,,0.04,83,Wunderground v.1.15,2013-03-18 19:35:00,
2013-03-18 15:40:00,42.0,40.9,30.03,NNW,340,0.0,6.0,96,0.00,,,0.04,74,Wunderground v.1.15,2013-03-18 19:40:00,
2013-03-18 15:45:00,42.0,40.9,30.04,NNW,340,0.0,6.0,96,0.00,,,0.04,65,Wunderground v.1.15,2013-03-18 19:45:00,
2013-03-18 15:50:00,42.0,40.9,30.04,NW,325,0.0,6.0,96,0.00,,,0.04,56,Wunderground v.1.15,2013-03-18 19:50:00,
2013-03-18 15:55:00,42.0,40.9,30.04,NW,325,0.0,6.0,96,0.00,,,0.04,51,Wunderground v.1.15,2013-03-18 19:55:00,
2013-03-18 16:00:00,41.9,40.8,30.04,NW,325,0.0,6.0,96,0.00,,,0.04,44,Wunderground v.1.15,2013-03-18 20:00:00,
2013-03-18 16:10:00,41.9,40.8,30.03,NW,325,0.0,6.0,96,0.00,,,0.04,46,Wunderground v.1.15,2013-03-18 20:10:00,
2013-03-18 16:20:00,42.0,40.9,30.03,NW,325,0.0,6.0,96,0.00,,,0.04,32,Wunderground v.1.15,2013-03-18 20:20:00,
2013-03-18 16:25:00,42.0,40.9,30.04,NW,325,0.0,6.0,96,0.00,,,0.04,25,Wunderground v.1.15,2013-03-18 20:25:00,
2013-03-18 16:30:00,42.0,40.9,30.03,NW,325,0.0,6.0,96,0.00,,,0.04,25,Wunderground v.1.15,2013-03-18 20:30:00,
2013-03-18 16:35:00,42.0,40.9,30.03,NW,325,0.0,6.0,96,0.00,,,0.04,28,Wunderground v.1.15,2013-03-18 20:35:00,
2013-03-18 16:40:00,42.0,40.9,30.03,NW,325,0.0,6.0,96,0.00,,,0.04,28,Wunderground v.1.15,2013-03-18 20:40:00,
2013-03-18 16:45:00,42.0,40.9,30.02,NW,325,0.0,6.0,96,0.00,,,0.04,28,Wunderground v.1.15,2013-03-18 20:45:00,
2013-03-18 16:50:00,41.9,40.8,30.02,NW,325,0.0,6.0,96,0.00,,,0.04,23,Wunderground v.1.15,2013-03-18 20:50:00,
2013-03-18 17:00:00,41.8,40.7,30.01,NW,325,0.0,6.0,96,0.00,,,0.04,23,Wunderground v.1.15,2013-03-18 21:00:00,
2013-03-18 17:05:00,41.9,40.8,30.01,NW,325,0.0,6.0,96,0.00,,,0.04,23,Wunderground v.1.15,2013-03-18 21:05:00,
2013-03-18 17:10:00,41.9,40.8,30.01,NW,325,0.0,6.0,96,0.00,,,0.04,28,Wunderground v.1.15,2013-03-18 21:10:00,
2013-03-18 17:20:00,41.9,40.8,30.01,NW,325,0.0,6.0,96,0.00,,,0.04,19,Wunderground v.1.15,2013-03-18 21:20:00,
2013-03-18 17:25:00,41.7,40.6,30.02,NNW,345,1.0,6.0,96,0.00,,,0.04,14,Wunderground v.1.15,2013-03-18 21:25:00,
2013-03-18 17:30:00,41.6,40.5,30.02,NNW,347,2.0,2.0,96,0.00,,,0.04,14,Wunderground v.1.15,2013-03-18 21:30:00,
2013-03-18 17:35:00,41.6,40.5,30.02,NNW,347,1.0,6.0,96,0.00,,,0.04,12,Wunderground v.1.15,2013-03-18 21:35:00,
2013-03-18 17:45:00,41.7,40.6,30.02,NNW,346,0.0,6.0,96,0.00,,,0.04,11,Wunderground v.1.15,2013-03-18 21:45:00,
2013-03-18 17:50:00,41.6,40.5,30.02,NNW,346,0.0,6.0,96,0.00,,,0.04,9,Wunderground v.1.15,2013-03-18 21:50:00,
2013-03-18 17:55:00,41.5,40.4,30.02,NNW,346,0.0,6.0,96,0.00,,,0.04,9,Wunderground v.1.15,2013-03-18 21:55:00,
2013-03-18 18:00:00,41.5,40.4,30.01,NNW,346,0.0,6.0,96,0.00,,,0.04,9,Wunderground v.1.15,2013-03-18 22:00:00,
2013-03-18 18:05:00,41.5,40.4,30.01,NNW,346,0.0,6.0,96,0.00,,,0.04,9,Wunderground v.1.15,2013-03-18 22:05:00,
2013-03-18 18:10:00,41.4,40.3,30.00,NNW,346,0.0,6.0,96,0.00,,,0.04,9,Wunderground v.1.15,2013-03-18 22:10:00,
2013-03-18 18:15:00,41.3,40.2,30.00,NNW,346,0.0,6.0,96,0.00,,,0.04,9,Wunderground v.1.15,2013-03-18 22:15:00,
2013-03-18 18:25:00,41.3,40.2,30.00,NNW,346,0.0,6.0,96,0.00,,,0.04,7,Wunderground v.1.15,2013-03-18 22:25:00,
2013-03-18 18:30:00,41.3,40.2,30.00,NNW,346,0.0,6.0,96,0.00,,,0.04,5,Wunderground v.1.15,2013-03-18 22:30:00,
2013-03-18 18:35:00,41.2,40.1,30.00,NNW,346,0.0,6.0,96,0.00,,,0.04,5,Wunderground v.1.15,2013-03-18 22:35:00,
2013-03-18 18:40:00,41.2,40.1,30.00,NNW,346,0.0,6.0,96,0.00,,,0.04,0,Wunderground v.1.15,2013-03-18 22:40:00,
2013-03-18 18:45:00,41.2,40.1,30.00,NNW,346,0.0,6.0,96,0.00,,,0.04,0,Wunderground v.1.15,2013-03-18 22:45:00,
2013-03-18 18:50:00,41.2,40.1,30.00,NNW,346,0.0,6.0,96,0.00,,,0.04,0,Wunderground v.1.15,2013-03-18 22:50:00,
2013-03-18 18:55:00,41.1,40.0,30.00,NNW,346,1.0,6.0,96,0.00,,,0.04,0,Wunderground v.1.15,2013-03-18 22:55:00,
2013-03-18 19:00:00,41.1,40.0,30.00,NNW,346,0.0,6.0,96,0.00,,,0.04,0,Wunderground v.1.15,2013-03-18 23:00:00,
2013-03-18 19:10:00,41.0,39.9,30.00,NNW,346,0.0,6.0,96,0.00,,,0.04,0,Wunderground v.1.15,2013-03-18 23:10:00,
2013-03-18 19:15:00,41.0,39.9,30.00,NNW,346,0.0,6.0,96,0.00,,,0.04,0,Wunderground v.1.15,2013-03-18 23:15:00,
2013-03-18 19:20:00,40.9,39.8,30.01,NNW,346,0.0,6.0,96,0.00,,,0.04,0,Wunderground v.1.15,2013-03-18 23:20:00,
2013-03-18 19:25:00,40.9,39.8,30.00,NNW,346,0.0,6.0,96,0.00,,,0.04,0,Wunderground v.1.15,2013-03-18 23:25:00,
2013-03-18 19:30:00,40.9,39.8,30.00,NNW,346,0.0,6.0,96,0.00,,,0.04,0,Wunderground v.1.15,2013-03-18 23:30:00,
2013-03-18 19:35:00,40.9,39.8,30.00,NNW,346,0.0,6.0,96,0.00,,,0.04,0,Wunderground v.1.15,2013-03-18 23:35:00,
2013-03-18 19:40:00,41.0,39.9,30.00,NNW,346,0.0,6.0,96,0.00,,,0.04,0,Wunderground v.1.15,2013-03-18 23:40:00,
2013-03-18 19:50:00,40.8,40.0,29.99,NNW,346,0.0,6.0,97,0.00,,,0.05,0,Wunderground v.1.15,2013-03-18 23:50:00,
2013-03-18 19:55:00,40.7,39.9,29.99,NNW,346,0.0,6.0,97,0.00,,,0.05,0,Wunderground v.1.15,2013-03-18 23:55:00,
2013-03-18 20:00:00,40.7,39.9,29.99,NNW,346,1.0,1.0,97,0.00,,,0.05,0,Wunderground v.1.15,2013-03-19 00:00:00,
2013-03-18 20:05:00,40.6,39.8,29.99,NNW,346,1.0,6.0,97,0.00,,,0.05,0,Wunderground v.1.15,2013-03-19 00:05:00,
2013-03-18 20:10:00,40.5,39.7,30.00,NNW,346,1.0,1.0,97,0.00,,,0.05,0,Wunderground v.1.15,2013-03-19 00:10:00,
2013-03-18 20:15:00,40.5,39.7,30.00,NNW,346,0.0,6.0,97,0.00,,,0.05,0,Wunderground v.1.15,2013-03-19 00:15:00,
2013-03-18 20:20:00,40.6,39.8,30.00,North,350,1.0,1.0,97,0.00,,,0.05,0,Wunderground v.1.15,2013-03-19 00:20:00,
2013-03-18 20:25:00,40.5,39.7,29.99,North,350,1.0,6.0,97,0.00,,,0.05,0,Wunderground v.1.15,2013-03-19 00:25:00,
2013-03-18 20:30:00,40.3,39.5,29.97,North,350,0.0,6.0,97,0.00,,,0.05,0,Wunderground v.1.15,2013-03-19 00:30:00,
2013-03-18 20:40:00,40.2,39.4,29.97,North,350,0.0,6.0,97,0.00,,,0.05,0,Wunderground v.1.15,2013-03-19 00:40:00,
2013-03-18 20:45:00,40.2,39.4,29.97,North,350,0.0,6.0,97,0.00,,,0.05,0,Wunderground v.1.15,2013-03-19 00:45:00,
2013-03-18 20:50:00,40.1,39.3,29.98,North,350,0.0,6.0,97,0.00,,,0.05,0,Wunderground v.1.15,2013-03-19 00:50:00,
2013-03-18 20:55:00,39.9,39.1,29.99,North,355,1.0,6.0,97,0.00,,,0.05,0,Wunderground v.1.15,2013-03-19 00:55:00,
2013-03-18 21:00:00,40.0,39.2,30.00,NW,325,3.0,6.0,97,0.00,,,0.05,0,Wunderground v.1.15,2013-03-19 01:00:00,
2013-03-18 21:05:00,40.0,39.2,30.00,NW,325,3.0,6.0,97,0.00,,,0.05,0,Wunderground v.1.15,2013-03-19 01:05:00,
2013-03-18 21:15:00,40.1,39.3,30.00,NW,325,7.0,8.0,97,0.00,,,0.05,0,Wunderground v.1.15,2013-03-19 01:15:00,
2013-03-18 21:20:00,39.9,39.1,29.99,NNW,348,7.0,7.0,97,0.00,,,0.05,0,Wunderground v.1.15,2013-03-19 01:20:00,
2013-03-18 21:25:00,39.7,38.7,30.00,NW,309,5.0,7.0,96,0.00,,,0.05,0,Wunderground v.1.15,2013-03-19 01:25:00,
2013-03-18 21:30:00,39.9,38.9,30.02,WNW,293,6.0,10.0,96,0.00,,,0.05,0,Wunderground v.1.15,2013-03-19 01:30:00,
2013-03-18 21:35:00,40.1,39.3,30.01,NNW,329,7.0,10.0,97,0.00,,,0.06,0,Wunderground v.1.15,2013-03-19 01:35:00,
2013-03-18 21:40:00,39.9,38.9,30.01,NW,304,6.0,7.0,96,0.00,,,0.06,0,Wunderground v.1.15,2013-03-19 01:40:00,
2013-03-18 21:45:00,39.9,38.9,30.00,NW,314,6.0,7.0,96,0.00,,,0.06,0,Wunderground v.1.15,2013-03-19 01:45:00,
2013-03-18 21:50:00,39.8,38.8,29.99,North,5,5.0,5.0,96,0.00,,,0.06,0,Wunderground v.1.15,2013-03-19 01:50:00,
2013-03-18 21:55:00,39.5,38.5,29.98,North,5,2.0,6.0,96,0.00,,,0.06,0,Wunderground v.1.15,2013-03-19 01:55:00,
2013-03-18 22:05:00,39.3,38.3,29.97,North,5,0.0,6.0,96,0.00,,,0.06,0,Wunderground v.1.15,2013-03-19 02:05:00,
2013-03-18 22:10:00,39.3,38.3,29.96,North,5,0.0,6.0,96,0.00,,,0.07,0,Wunderground v.1.15,2013-03-19 02:10:00,
2013-03-18 22:15:00,39.3,38.3,29.96,North,5,0.0,6.0,96,0.08,,,0.08,0,Wunderground v.1.15,2013-03-19 02:15:00,
2013-03-18 22:20:00,39.2,38.2,29.96,North,5,0.0,6.0,96,0.08,,,0.08,0,Wunderground v.1.15,2013-03-19 02:20:00,
2013-03-18 22:30:00,39.3,38.3,29.95,North,360,0.0,6.0,96,0.04,,,0.09,0,Wunderground v.1.15,2013-03-19 02:30:00,
2013-03-18 22:35:00,39.3,38.3,29.95,North,360,0.0,6.0,96,0.04,,,0.09,0,Wunderground v.1.15,2013-03-19 02:35:00,
2013-03-18 22:40:00,39.3,38.3,29.95,North,360,0.0,6.0,96,0.04,,,0.09,0,Wunderground v.1.15,2013-03-19 02:40:00,
2013-03-18 22:45:00,39.1,38.1,29.94,North,360,0.0,6.0,96,0.00,,,0.09,0,Wunderground v.1.15,2013-03-19 02:45:00,
2013-03-18 22:50:00,39.1,38.1,29.93,North,360,0.0,6.0,96,0.00,,,0.09,0,Wunderground v.1.15,2013-03-19 02:50:00,
2013-03-18 23:00:00,39.1,38.1,29.91,North,360,0.0,6.0,96,0.00,,,0.09,0,Wunderground v.1.15,2013-03-19 03:00:00,
2013-03-18 23:05:00,39.1,38.1,29.91,North,360,0.0,6.0,96,0.00,,,0.09,0,Wunderground v.1.15,2013-03-19 03:05:00,
2013-03-18 23:10:00,39.0,38.0,29.90,North,360,0.0,6.0,96,0.00,,,0.09,0,Wunderground v.1.15,2013-03-19 03:10:00,
2013-03-18 23:15:00,39.1,38.1,29.90,South,188,0.0,6.0,96,0.00,,,0.09,0,Wunderground v.1.15,2013-03-19 03:15:00,
2013-03-18 23:20:00,39.2,38.2,29.90,South,183,3.0,3.0,96,0.00,,,0.09,0,Wunderground v.1.15,2013-03-19 03:20:00,
2013-03-18 23:25:00,39.2,38.2,29.89,South,180,3.0,6.0,96,0.00,,,0.09,0,Wunderground v.1.15,2013-03-19 03:25:00,
2013-03-18 23:30:00,39.2,38.2,29.90,South,180,0.0,6.0,96,0.00,,,0.09,0,Wunderground v.1.15,2013-03-19 03:30:00,
2013-03-18 23:40:00,39.2,38.2,29.89,South,180,0.0,6.0,96,0.00,,,0.09,0,Wunderground v.1.15,2013-03-19 03:40:00,
2013-03-18 23:45:00,39.2,38.2,29.88,South,180,0.0,6.0,96,0.00,,,0.09,0,Wunderground v.1.15,2013-03-19 03:45:00,
2013-03-18 23:50:00,39.2,38.2,29.88,South,180,0.0,6.0,96,0.00,,,0.09,0,Wunderground v.1.15,2013-03-19 03:50:00,